FW5647 Weather Reports


Display with metric or nautical units.
time (UTC)temp
F
wind
direction
speed
MPH
gust
MPH
rain 1hr
in
rain 24hr
in
rain mn
in
humidity
%
barometer
mb
20260902211547 92 247 2.0 18.0 0.00 0.00 0.00 58 1013.2
20260902210046 92 226 3.0 14.0 0.00 0.00 0.00 58 1013.2
20260902204542 92 201 3.0 11.0 0.00 0.00 0.00 60 1013.2
20260902203058 92 218 4.0 14.0 0.00 0.00 0.00 61 1013.3
20260902201545 92 188 3.0 10.0 0.00 0.00 0.00 57 1013.6
20260902200053 93 184 2.0 15.0 0.00 0.00 0.00 56 1013.6
20260902194544 93 244 4.0 12.0 0.00 0.00 0.00 57 1013.9
20260902193042 92 101 2.0 15.0 0.00 0.00 0.00 57 1014.2
20260902191550 92 227 5.0 12.0 0.00 0.00 0.00 58 1014.3
20260902190049 92 261 5.0 14.0 0.00 0.00 0.00 59 1014.3
20260902184550 92 185 3.0 13.0 0.00 0.00 0.00 61 1014.4
20260902183107 92 244 2.0 10.0 0.00 0.00 0.00 59 1014.4
20260902181543 92 328 4.0 10.0 0.00 0.00 0.00 58 1014.6
20260902180042 91 177 5.0 10.0 0.00 0.00 0.00 59 1014.8
20260902174540 91 271 4.0 8.0 0.00 0.00 0.00 61 1015.0
20260902173044 92 308 2.0 8.0 0.00 0.00 0.00 61 1015.3
20260902171541 91 331 2.0 11.0 0.00 0.00 0.00 62 1015.3
20260902170046 91 234 2.0 6.0 0.00 0.00 0.00 62 1015.7
20260902164543 90 285 3.0 9.0 0.00 0.00 0.00 63 1015.7
20260902163057 90 252 3.0 7.0 0.00 0.00 0.00 63 1015.6
20260902161550 88 262 5.0 11.0 0.00 0.00 0.00 66 1015.9
20260902160039 88 297 3.0 11.0 0.00 0.00 0.00 66 1015.8
20260902154538 88 282 2.0 8.0 0.00 0.00 0.00 67 1015.8
20260902153042 87 141 5.0 11.0 0.00 0.00 0.00 69 1015.8
20260902151548 86 273 2.0 9.0 0.00 0.00 0.00 71 1015.6
20260902150043 85 219 3.0 7.0 0.00 0.00 0.00 73 1015.6
20260902144543 85 278 2.0 5.0 0.00 0.00 0.00 74 1015.7
20260902143042 84 240 2.0 7.0 0.00 0.00 0.00 75 1015.4
20260902141547 83 230 2.0 9.0 0.00 0.00 0.00 77 1015.5
20260902140047 83 220 2.0 7.0 0.00 0.00 0.00 77 1015.5
20260902134547 82 207 1.0 5.0 0.00 0.00 0.00 81 1015.5
20260902133040 80 233 1.0 6.0 0.00 0.00 0.00 83 1015.7
20260902131542 79 273 2.0 7.0 0.00 0.00 0.00 85 1015.6
20260902130041 78 248 0.0 5.0 0.00 0.00 0.00 88 1015.5
20260902124541 76 0 1.0 6.0 0.00 0.00 0.00 90 1015.6
20260902123101 75 218 0.0 3.0 0.00 0.00 0.00 93 1015.6
20260902121553 74 0 0.0 1.0 0.00 0.00 0.00 95 1015.3
20260902120044 73 0 0.0 1.0 0.00 0.00 0.00 95 1015.5
20260902114541 73 0 0.0 1.0 0.00 0.00 0.00 94 1015.4
20260902113040 73 0 0.0 2.0 0.00 0.00 0.00 94 1015.5
20260902111546 74 200 0.0 1.0 0.00 0.00 0.00 94 1015.3
20260902110042 74 0 0.0 2.0 0.00 0.00 0.00 94 1015.9
20260902104542 74 255 1.0 5.0 0.00 0.00 0.00 95 1015.6
20260902103043 73 0 0.0 1.0 0.00 0.00 0.00 95 1015.6
20260902101538 73 0 0.0 1.0 0.00 0.00 0.00 95 1015.3
20260902100038 74 0 0.0 2.0 0.00 0.00 0.00 95 1015.1
20260902094541 73 0 0.0 1.0 0.00 0.00 0.00 95 1015.0
20260902093040 73 0 0.0 0.0 0.00 0.00 0.00 94 1015.2
20260902091539 74 0 0.0 0.0 0.00 0.00 0.00 94 1015.1
20260902090040 74 0 0.0 1.0 0.00 0.00 0.00 94 1015.0
20260902084541 74 0 0.0 2.0 0.00 0.00 0.00 94 1014.9
20260902083038 75 257 1.0 3.0 0.00 0.00 0.00 94 1014.9
20260902081542 74 229 0.0 1.0 0.00 0.00 0.00 95 1014.9
20260902080040 74 0 0.0 2.0 0.00 0.00 0.00 95 1015.0
20260902074542 74 240 0.0 1.0 0.00 0.00 0.00 94 1014.8
20260902073040 74 0 0.0 2.0 0.00 0.00 0.00 95 1014.9
20260902071541 74 0 0.0 1.0 0.00 0.00 0.00 94 1014.7
20260902070042 74 0 0.0 1.0 0.00 0.00 0.00 95 1014.7
20260902064537 74 221 0.0 4.0 0.00 0.00 0.00 95 1014.6
20260902063052 74 0 0.0 2.0 0.00 0.00 0.00 95 1014.6
20260902061539 73 0 0.0 0.0 0.00 0.00 0.00 95 1014.8
20260902060041 72 0 0.0 0.0 0.00 0.00 0.00 95 1015.0
20260902054545 72 0 0.0 0.0 0.00 0.00 0.00 94 1015.2
20260902053043 72 0 0.0 0.0 0.00 0.00 0.00 94 1015.3
20260902051545 72 0 0.0 0.0 0.00 0.00 0.00 94 1015.2
20260902050057 72 0 0.0 0.0 0.00 0.00 0.00 94 1015.3
20260902044539 72 0 0.0 0.0 0.00 0.00 0.00 93 1015.5
20260902043044 72 0 0.0 0.0 0.00 0.00 0.00 93 1015.4
20260902041540 72 0 0.0 0.0 0.00 0.00 0.00 93 1015.4
20260902040042 72 0 0.0 1.0 0.00 0.00 0.00 93 1015.3
20260902034541 72 0 0.0 0.0 0.00 0.00 0.00 93 1015.3
20260902033037 73 0 0.0 0.0 0.00 0.00 0.00 93 1015.4
20260902031541 73 230 0.0 0.0 0.00 0.00 0.00 92 1015.0
20260902030039 73 0 0.0 0.0 0.00 0.00 0.00 91 1015.0
20260902024555 74 0 0.0 0.0 0.00 0.00 0.00 91 1015.0
20260902023042 74 0 0.0 0.0 0.00 0.00 0.00 90 1014.8
20260902021539 75 0 0.0 0.0 0.00 0.00 0.00 90 1014.7
20260902020053 75 0 0.0 0.0 0.00 0.00 0.00 90 1014.9
20260902014546 75 0 0.0 0.0 0.00 0.00 0.00 89 1015.1
20260902013043 76 0 0.0 0.0 0.00 0.00 0.00 88 1015.2
20260902011541 76 0 0.0 0.0 0.00 0.00 0.00 87 1015.3
20260902010046 77 0 0.0 3.0 0.00 0.00 0.00 86 1015.2
20260902004548 77 0 0.0 1.0 0.00 0.00 0.00 85 1015.1
20260902003044 78 0 0.0 0.0 0.00 0.00 0.00 83 1014.9
20260902001545 80 0 0.0 3.0 0.00 0.00 0.00 80 1014.6
20260902000044 80 252 0.0 5.0 0.00 0.00 0.00 79 1014.9
20260901234553 81 259 2.0 9.0 0.00 0.00 0.00 77 1015.0
20260901233043 82 291 3.0 6.0 0.00 0.00 0.00 76 1015.1
20260901231540 83 244 1.0 9.0 0.00 0.00 0.00 74 1015.1
20260901224541 85 276 4.0 14.0 0.00 0.02 0.00 71 1015.0
20260901223101 86 240 4.0 12.0 0.00 0.02 0.00 71 1014.7
20260901221542 87 295 4.0 10.0 0.00 0.02 0.00 72 1014.6
20260901220106 87 191 5.0 11.0 0.00 0.02 0.00 71 1014.5
20260901214542 89 281 2.0 8.0 0.00 0.07 0.00 70 1014.4
20260901213050 88 236 4.0 10.0 0.00 0.07 0.00 69 1014.2